Vorticity
nan nan nan nan nan nan nan nan nan nan nan nan nan nan nan nan nan nan nan nan nan nan nan nan nan nan nan nan nan nan nan nan nan nan nan nan nan nan nan nan nan nan nan nan
nan 13 6 6 9 10 6 4 4 7 4 5 4 6 6 10 8 12 11 10 11 11 9 9 7 7 7 7 7 8 6 5 6 7 8 10 8 7 7 9 10 7 6 nan
nan 8 17 10 6 8 6 6 5 5 5 7 15 13 16 13 10 12 10 12 13 11 9 8 6 6 7 7 7 8 8 6 6 4 6 11 8 6 10 9 7 10 10 nan
nan 6 16 14 6 5 7 8 6 8 6 8 9 12 17 17 11 5 6 11 12 12 9 9 8 8 7 7 8 8 9 7 8 6 6 10 9 4 6 6 8 12 10 nan
nan 20 14 7 10 5 8 10 14 12 12 12 3 6 9 11 10 10 12 10 11 12 11 10 10 9 7 8 8 8 10 8 7 7 6 5 7 7 7 9 9 8 9 nan
nan 4 16 14 11 10 10 11 11 11 15 15 15 8 7 14 11 10 12 12 15 13 12 9 10 9 9 8 9 8 8 8 8 7 8 7 5 5 6 6 8 8 6 nan
nan 4 -1 12 13 15 3 5 10 9 7 7 21 14 5 9 9 6 7 15 17 14 13 11 9 7 9 8 8 8 8 8 8 8 8 8 7 7 9 6 6 7 6 nan
nan 22 15 5 5 6 14 0 -2 4 3 9 9 11 9 3 9 8 7 10 11 14 14 11 8 8 9 9 9 8 7 6 8 8 8 10 4 2 9 9 7 8 10 nan
nan 7 16 22 18 3 4 8 0 4 11 10 7 7 11 15 13 11 9 10 11 13 14 13 9 8 9 10 10 9 8 8 7 6 8 9 9 6 7 9 3 6 8 nan
nan 13 15 15 17 13 5 11 14 9 9 9 9 7 14 12 9 6 4 14 19 17 15 13 11 9 8 10 10 11 9 9 8 6 6 9 10 8 5 8 8 6 7 nan
nan 14 10 10 18 16 11 4 -0 9 10 4 6 10 17 6 10 4 3 18 21 20 16 12 12 10 10 10 9 9 10 9 8 8 8 8 9 9 6 7 8 8 8 nan
nan 16 9 6 3 7 15 18 5 3 5 3 8 11 5 7 7 3 7 11 17 19 16 13 13 11 11 9 9 9 9 9 9 9 9 9 8 9 8 8 8 8 8 nan
nan 13 14 14 8 7 9 10 9 6 6 9 5 8 3 1 3 8 4 2 11 17 17 13 13 11 10 9 9 9 9 10 9 9 9 9 9 9 8 8 9 8 9 nan
nan 5 4 -0 2 9 7 7 17 14 6 9 7 -0 4 7 7 6 5 2 6 15 16 12 11 11 11 11 10 9 9 9 10 10 9 9 9 8 9 9 10 11 10 nan
nan 10 11 8 -0 2 6 8 10 12 9 2 8 11 10 8 5 5 3 4 5 8 16 15 11 11 11 11 10 10 10 10 10 9 9 8 9 10 9 10 10 10 10 nan
nan 14 14 16 19 9 5 16 17 12 8 10 9 9 9 12 14 10 5 6 6 8 12 17 14 11 11 11 11 11 11 11 9 9 8 9 10 9 8 10 10 10 10 nan
nan 6 11 14 8 11 16 11 18 26 14 8 9 12 9 6 8 7 11 10 10 9 7 13 20 17 12 11 11 11 10 11 10 10 10 10 10 10 10 9 9 10 11 nan
nan 6 5 7 11 9 4 9 24 31 21 13 8 7 7 9 10 6 11 15 12 13 12 11 13 17 18 14 11 11 12 11 11 11 11 11 11 11 12 13 12 12 13 nan
nan 2 5 12 7 10 9 6 14 20 29 23 18 15 13 13 14 15 12 10 10 12 14 12 13 17 20 19 14 12 11 10 10 10 12 13 14 13 13 16 15 12 14 nan
nan 7 1 5 10 11 14 10 1 13 20 7 17 15 20 20 17 10 4 9 13 13 14 11 16 22 22 18 14 14 13 11 13 13 12 12 16 17 13 11 10 11 12 nan
nan 12 10 3 6 6 6 17 18 11 -2 5 11 14 13 11 13 12 7 8 10 10 14 16 19 21 21 18 16 15 14 13 16 19 15 12 12 11 11 11 11 12 10 nan
nan 12 13 9 10 5 7 12 13 12 3 14 13 9 7 6 5 12 12 8 8 12 13 16 18 18 20 20 18 15 12 14 14 13 12 12 13 12 12 10 10 10 10 nan
nan 8 8 13 12 8 5 12 7 8 15 7 9 8 6 7 5 8 15 10 9 11 12 15 14 12 15 19 18 13 11 11 11 11 10 11 11 12 13 10 9 8 9 nan
nan 12 9 14 8 -1 6 10 5 10 13 13 15 14 13 12 15 12 10 12 11 8 10 12 12 9 13 14 13 13 13 12 11 10 10 9 9 11 12 11 11 11 11 nan
nan 10 9 12 5 10 9 -6 7 10 12 14 20 22 19 20 22 17 10 10 9 12 11 10 11 10 10 12 14 12 12 11 9 9 8 9 9 9 8 12 15 17 19 nan
nan nan nan nan nan nan nan nan nan nan nan nan nan nan nan nan nan nan nan nan nan nan nan nan nan nan nan nan nan nan nan nan nan nan nan nan nan nan nan nan nan nan nan nan
CAPE
0 0 0 0 0 0 0 0 0 0 0 0 0 0 0 0 0 0 0 37 120 147 190 300 3 7 6 14 13 6 3 16 50 17 12 28 26 52 39 38 39 34 0 0
0 0 0 0 0 0 0 0 0 0 0 0 0 0 0 0 0 0 0 35 107 204 357 316 27 13 9 14 20 7 3 6 12 38 24 14 27 36 32 41 58 42 13 0
0 0 0 0 0 0 0 0 0 0 0 0 0 0 0 0 0 0 0 1 61 216 522 435 211 46 59 19 21 13 8 3 13 23 7 4 13 70 74 107 52 56 47 7
0 0 0 0 0 0 0 0 0 0 0 0 0 0 0 0 0 0 0 24 55 166 350 583 375 150 98 15 16 22 13 8 10 26 16 4 3 14 53 78 54 63 100 92
0 0 0 0 0 0 0 0 0 0 0 0 0 0 0 0 0 0 0 0 40 148 367 694 518 272 173 7 9 20 20 14 8 14 11 4 10 5 66 19 15 24 112 116
0 0 0 0 0 0 0 0 0 0 0 0 0 0 0 0 0 0 0 0 0 63 292 628 597 302 223 6 2 21 17 18 7 12 20 23 9 7 15 0 1 0 81 107
0 0 0 0 0 0 0 0 0 0 0 0 0 0 0 0 0 0 0 0 0 22 161 552 685 504 193 4 5 3 15 20 14 12 21 30 14 1 2 9 0 0 52 56
0 0 0 0 0 0 0 0 0 0 10 3 0 0 0 0 0 0 0 0 0 7 125 467 669 652 191 43 1 3 4 7 18 15 27 42 39 35 16 1 0 59 94 115
0 0 0 0 0 0 0 0 0 0 0 0 0 2 0 0 0 0 0 0 0 0 78 327 561 597 306 146 11 4 5 11 6 7 14 22 38 45 80 42 27 78 140 80
0 0 0 0 0 0 0 0 0 0 0 0 0 2 1 0 0 0 0 0 0 0 19 246 462 590 417 204 36 3 5 28 56 48 17 17 17 23 27 56 59 81 127 96
0 0 0 0 0 0 0 0 0 0 1 1 1 1 7 0 0 0 0 0 0 0 17 198 341 478 508 317 98 0 14 35 57 48 65 36 15 12 16 72 84 65 169 84
18 42 0 0 0 0 0 0 0 1 0 8 4 0 8 0 0 0 0 0 0 0 51 192 256 345 404 422 238 110 48 44 65 51 62 79 55 13 29 89 166 208 161 79
0 29 50 4 0 0 0 0 0 1 15 8 58 2 0 0 0 0 17 0 0 0 34 224 303 306 345 405 340 171 94 62 48 52 71 72 69 85 247 181 151 69 86 72
0 0 2 39 26 17 4 0 1 8 17 0 0 0 17 5 0 0 2 15 10 0 5 153 359 364 332 340 391 259 148 71 35 21 14 32 76 70 85 56 43 10 11 17
12 5 0 0 0 0 0 0 0 0 0 33 0 0 0 1 0 0 0 6 4 3 0 18 267 483 428 387 360 271 225 117 53 7 0 0 2 1 0 2 1 0 0 2
4 36 23 10 0 0 5 0 0 1 0 8 9 5 20 21 0 0 0 0 0 3 0 0 20 291 513 414 441 303 240 172 106 58 14 0 4 0 0 0 0 0 5 4
9 14 6 8 37 29 3 42 59 20 2 0 9 10 25 11 0 0 0 0 0 1 0 0 0 24 298 496 381 400 275 192 128 105 66 30 21 19 14 5 0 0 46 34
11 18 41 26 29 10 0 0 43 31 25 3 1 1 7 5 3 1 0 0 0 0 0 0 0 0 7 214 358 416 295 183 125 107 86 62 55 46 28 16 19 23 10 5
12 18 41 20 66 24 0 0 18 98 71 68 39 38 63 25 4 4 0 0 0 0 0 0 0 0 0 22 172 259 314 248 160 109 95 71 63 68 48 5 6 2 2 1
5 23 81 39 55 17 3 0 6 8 238 174 199 210 133 60 60 78 0 0 0 0 0 0 0 0 0 0 1 84 215 240 205 201 147 62 11 1 3 1 1 1 1 1
20 33 41 21 40 47 49 51 22 146 105 135 156 238 182 187 152 18 0 9 1 0 0 0 0 0 0 17 24 67 105 99 22 0 2 1 1 1 1 1 0 0 1 1
19 29 30 20 65 23 1 18 49 33 196 160 129 192 325 181 31 4 0 0 0 0 1 1 6 2 2 4 28 4 2 3 2 1 0 0 1 0 0 0 0 1 0 1
1 83 58 77 42 6 0 14 22 23 23 5 112 308 254 157 26 18 13 0 0 4 5 3 7 2 2 3 2 3 4 0 0 1 1 1 0 0 0 0 1 1 1 0
0 0 31 0 7 1 0 0 0 0 0 3 4 2 120 170 129 23 3 0 0 3 2 1 1 2 3 2 1 3 1 0 0 1 1 1 0 1 1 1 1 1 1 1
13 1 2 0 0 6 3 0 0 0 0 0 0 40 94 95 62 15 0 2 3 3 1 1 2 1 1 1 1 0 0 0 2 0 0 1 1 2 2 1 1 1 0 0
26 17 28 57 3 2 1 0 0 0 0 0 0 15 0 15 2 0 0 0 0 0 0 0 0 0 0 0 0 0 0 0 0 0 1 1 1 1 1 1 3 7 3 4